www.pogodaiklimat.ru

Погода и климат >> Архив погоды >> Россия >> Якутия >> Теплый Ключ


ПОГОДА в Теплом Ключе

  • Прогноз погоды в Теплом Ключе
  • Монитор погоды в Теплом Ключе
  • Климат города

АРХИВ ПОГОДЫ в Теплом Ключе

Время (UTC), дата Ветер
(напр.,м/с)
 
Видим.   Явления Облачность Т
(С)
Тd
(С)
f
(%)
Тe
(С)
Тes
(С)
Комфортность P
(гПа)
Po
(гПа)
Тmin
(С)
Tmax
(С)
R
(мм)
R24
(мм)
S
(см)
03 9.07 ЮЗ 2 50 км ясно +32.4 +11.5 28 +32 +45 жарко 1012.8 980.8
06 9.07 СЗ 2 50 км ясно +33.9 +8.1 20 +32 +41 жарко 1011.0 979.2
09 9.07 СЗ 2 50 км ясно +32.3 +8.0 22 +31 +33 жарко 1010.1 978.2 +34.2
12 9.07 штиль 0 н/о н/о +23.4 +17.8 71 +29 +29 душно 1010.9 978.1
15 9.07 В 1 н/о н/о +15.6 +14.4 93 +16 +16 1011.7 978.0
18 9.07 В 1 н/о н/о +11.8 +11.0 95 +12 +12 1011.9 977.7
21 9.07 В 1 50 км 8/0
[Ci fib]
+17.8 +12.2 70 +19 +22 1010.9 977.5 +11.6
00 10.07 Ю 1 50 км 8/0 2000 м
[Ac trans Ci fib]
+26.9 +14.8 47 +29 +37 жарко 1009.3 977.0
03 10.07 ЮВ 2 50 км 10/0 2000 м
[Ac trans Ci fib]
+30.5 +13.3 35 +32 +39 жарко 1007.7 975.7
06 10.07 З 2 50 км 8/0 2000 м
[Ac trans Ci fib]
+33.6 +12.6 28 +34 +40 очень
жарко
1004.8 973.3
09 10.07 ЮВ 1 50 км 8/0 2000 м
[Ac trans]
+31.3 +13.8 34 +33 +34 жарко 1003.3 971.5 +34.0
12 10.07 В 1 н/о н/о +26.6 +16.6 54 +30 +30 душно 1003.7 971.5
15 10.07 В 2 н/о н/о +19.5 +14.2 71 +22 +22 комфорт 1004.3 971.3
18 10.07 штиль 0 н/о н/о +19.0 +13.5 70 +20 +20 1004.4 971.3
21 10.07 В 1 50 км 8/8 1200 м
[Cb calv]
+19.3 +14.7 75 +22 +23 комфорт 1005.5 972.4 +18.4
00 11.07 ЮВ 2 50 км 4/4 1000 м
[Cb calv]
+26.0 +13.9 47 +28 +34 жарко 1003.5 971.3
03 11.07 В 2 50 км 4/4 1000 м
[Cb calv]
+30.1 +13.7 37 +32 +39 жарко 1001.5 969.7
06 11.07 З 3 50 км 4/4 1000 м
[Cb calv]
+30.8 +7.1 23 +30 +34 жарко 999.9 968.2
09 11.07 С 1 50 км 8/4 1000 м
[Cb calv Ci fib]
+29.8 +9.0 27 +29 +31 жарко 999.7 967.9 +31.2
12 11.07 Ю 1 н/о н/о +21.5 +12.9 58 +24 +24 комфорт 1001.2 968.5
15 11.07 ЮВ 1 н/о н/о +14.1 +12.1 88 +14 +14 1002.2 968.6
18 11.07 ЮВ 1 н/о н/о +15.4 +11.1 76 +16 +16 1002.2 968.8
21 11.07 ЮВ 1 50 км 10/4 1000 м
[Cb calv Ac und]
+17.3 +12.2 72 +18 +19 1003.3 970.1 +13.1
00 12.07 ЮВ 1 50 км в посл. час ливневой дождь 8/8 1200 м
[Cb calv Ac trans]
+17.7 +14.8 83 +19 +21 1002.5 969.4
03 12.07 ЮЗ 2 50 км 8/4 1000 м
[Cb calv Ac trans]
+24.1 +13.3 51 +26 +31 жарко 1001.7 969.2
06 12.07 Ю 3 50 км 6/4 1000 м
[Cb calv Ac trans]
+27.1 +10.4 35 +28 +31 жарко 999.1 967.1
09 12.07 Ю 2 50 км 8/4 1000 м
[Cb calv Ac trans]
+27.0 +10.8 36 +28 +29 жарко 998.1 966.1 +27.5 0.3
12 12.07 С 2
{11}
н/о н/о +19.2 +14.5 74 +21 +21 комфорт 999.5 966.6
15 12.07 В 2 н/о н/о +17.8 +13.6 76 +18 +18 999.8 966.7
18 12.07 В 2 н/о н/о +17.3 +13.7 79 +18 +18 1000.0 966.9
21 12.07 В 1 50 км 9/9 1200 м
[Cb calv]
+18.8 +14.1 74 +21 +21 комфорт 999.9 967.0 +16.9
00 13.07 ЮВ 2 50 км {ливн. осадки} 8/8 1200 м
[Cb calv]
+21.7 +17.2 76 +26 +28 душно 1000.2 967.6 +16.3
03 13.07 Ю 2 50 км 10/4 1000 м
[Cb calv Ac und]
+20.6 +15.8 74 +24 +27 комфорт 1000.8 968.1
06 13.07 В 3 50 км 10/3 1000 м
[Cb calv As trans]
+22.4 +16.3 68 +27 +29 душно 1000.1 967.6
09 13.07 штиль 0 50 км 10/0 2000 м
[As trans]
+23.4 +15.6 62 +28 +29 душно 999.9 967.5 +23.5 3
12 13.07 В 2 н/о н/о +19.9 +16.0 78 +23 +23 комфорт 1000.7 967.9
15 13.07 В 2 н/о н/о +18.1 +15.6 85 +19 +19 1000.9 967.8
18 13.07 ЮВ 1 н/о н/о +16.5 +15.3 93 +17 +17 1001.5 968.3
21 13.07 В 1 50 км 10/4 1000 м
[Cb calv Ac und]
+19.2 +15.7 80 +22 +22 комфорт 1002.1 969.1 +16.5
00 14.07 В 2 н/о н/о +20.1 +16.5 80 +23 +23 комфорт 1002.4 969.6
03 14.07 ЮВ 2 н/о н/о +21.9 +16.4 71 +26 +26 душно 1002.5 969.8
06 14.07 СВ 2 н/о н/о +22.1 +17.0 73 +27 +27 душно 1002.3 969.7
09 14.07 ЮЗ 1 н/о н/о +20.5 +15.7 74 +25 +25 комфорт 1002.8 970.0 +23.1
12 14.07 В 1 н/о н/о +17.6 +16.2 91 +19 +19 1003.3 970.2
15 14.07 В 1 н/о н/о +16.3 +15.6 96 +17 +17 1004.7 971.3
18 14.07 В 2 н/о н/о +16.5 +15.9 96 +17 +17 1004.9 971.6
21 14.07 ЮВ 3 10 км слабый ливневой дождь 10/8 1000 м
[Cb calv Ac und]
+16.7 +16.0 96 +16 +17 1005.4 972.1 +16.2 4
00 15.07 ЮВ 2 н/о н/о +16.7 +15.6 93 +17 +17 1006.5 973.1
03 15.07 ЮВ 1 н/о н/о +18.1 +16.9 93 +19 +19 1006.7 973.5
06 15.07 В 3 н/о н/о +17.4 +16.7 96 +17 +17 1006.2 973.0
09 15.07 В 2 н/о н/о +20.9 +16.9 78 +25 +25 комфорт 1004.9 972.0 +20.9
12 15.07 В 1 н/о н/о +18.6 +16.0 85 +21 +21 комфорт 1005.5 972.4
15 15.07 В 2
{11}
н/о н/о +15.8 +15.1 96 +16 +16 1007.8 974.3
18 15.07 В 2 н/о н/о +16.0 +15.4 96 +16 +16 1007.4 973.9
21 15.07 В 1 50 км 9/9 1200 м
[Cb calv]
+16.3 +15.1 93 +17 +17 1008.4 974.8 +15.7 13
00 16.07 В 1 50 км 9/9 1200 м
[Cb calv]
+16.2 +14.6 90 +17 +18 1008.9 975.3

 

Местоположение метеостанции Теплый Ключ (Якутия, Россия): широта 62.78 долгота 136.80 высота над уровнем моря 289 м.

В архиве по умолчанию представлена погода в Теплом Ключе за последнюю неделю. Архивные данные за месяц целиком и за предыдущие месяцы, начиная с января 2011 года, Вы можете получить, выбрав интересующий диапазон дат из раскрывающегося списка и нажав кнопку "Ввод!".


*Определитесь, кто Вы:
робот инопланетянин человек

Внимание! Время в таблицах - всемирное. Для получения местного времени необходимо прибавить поправку, которая в Теплом Ключе равна 9 ч.

Смотрите также архив погоды в соседних городах и на ближайших метеорологических станциях:

Погода в Охотском Перевозе (Якутия, Россия) (121 км)
Погода в Крест-Хальджае (Якутия, Россия) (122 км)
Погода в Томпо (Якутия, Россия) (139 км)
Погода в Восточной (Якутия, Россия) (150 км)
Погода в Ытык-Кюёле (Якутия, Россия) (175 км)
Погода в Чурапче (Якутия, Россия) (232 км)
Погода в Верхоянском Перевозе (Якутия, Россия) (249 км)
Погода в Агаякане (Якутия, Россия) (254 км)
Погода в Иэме (Якутия, Россия) (284 км)
Погода в Юртах (Якутия, Россия) (286 км)

Пояснения к столбцам:

Ветер - указаны скорость ветра в м/с - средняя за 10 мин, порывы в срок и между сроками (в фигурных скобках) и направление, откуда дует ветер: С - северный, СВ - северо-восточный, В - восточный, ЮВ - юго-восточный, Ю - южный, ЮЗ - юго-западный, З - западный, СЗ - северо-западный.
Видимость - горизонтальная дальность видимости в метрах или километрах. При видимости от 1 до 10 км при отсутствии осадков обычно наблюдается дымка, при ухудшении видимости до 1 км и менее - туман. В сухую погоду видимость может ухудшаться дымом, пылью или мглою.
Явления - указаны атмосферные явления, наблюдавшиеся в срок или в последний час перед сроком; фигурными скобками обозначены явления, наблюдавшиеся между сроками (за 1-3 часа до срока); квадратными скобками обозначены град или гололедные отложения с указанием их диаметра в мм.
Облачность - указаны через наклонную черту общая и нижняя облачность в баллах и высота нижней границы облаков в метрах; квадратными скобками обозначены формы облаков: Ci - перистые, Cs - перисто-слоистые, Cc - перисто-кучевые, Ac - высококучевые, As - высокослоистые, Sc - слоисто-кучевые, Ns - слоисто-дождевые, Cu - кучевые, Cb - кучево-дождевые. Подробнее классификацию облаков см. в Атласе облаков (PDF).
T - Температура воздуха - температура, измеренная на высоте 2 м над землей.
Td - Температура точки росы - температура, при понижении до которой содержащийся в воздухе водяной пар достигнет насыщения.
f - Относительная влажность воздуха - влажноcть воздуха, измеренная на высоте 2 м над землей.
Te - Эффективная температура - температура, которую ощущает одетый по сезону человек в тени. Характеристика душности погоды. При расчете учитывается влияние влажности воздуха и скорости ветра на теплоощущения человека.
Tes - Эффективная температура на солнце - температура, которую ощущает человек, с поправкой на солнечный нагрев. Характеристика знойности погоды. Зависит от высоты солнца над горизонтом, облачности и скорости ветра. Ночью, в пасмурную погоду, а также при ветре 12 м/с и более поправка равна нулю.
P - Атмосферное давление - приведенное к уровню моря атмосферное давление.
Po - Атмосферное давление - измеренное на уровне метеостанции атмосферное давление.
Tmin - Минимальная температура - минимум температуры воздуха на высоте 2 м над землей.
Tmax - Максимальная температура - максимум температуры воздуха на высоте 2 м над землей.
R - Количество осадков - Количество выпавших осадков за период времени, мм. При наведении курсора мыши на число - период времени, за который выпало указанное количество осадков.
R24 - Количество осадков - Количество выпавших осадков за 24 часа, мм.
S - Снежный покров - Высота снежного покрова, см. При наведении курсора мыши на число - состояние снежного покрова и степень покрытия местности в баллах.